map of ASU home
Great Circle Mapper logo
ASU - Airport
Location
City:  Asuncion, Paraguay
Name:Silvio Pettirossi International Airport
ICAO / IATA:SGAS / ASU

Details
Type:Airport (Aerodrome, Airfield)
Use:Public/Civil, Military, International (customs port of entry)
Latitude:2514'23"S (-25.239849)
Longitude:5731'09"W (-57.519132)
Datum:WGS 1984
Elevation:292 ft (89 m)
Variation:13.6W (WMM2015 magnetic declination)
Runways:1
Longest:11001 × 151 ft (3353 × 46 m), paved

Time
Time Zone:UTC-4 (DST-3)
Local Time:

Weather
METAR:SGAS 180700Z 00000KT 9000 SCT020 BKN030 22/22 Q1009
TAF:SGAS 180540Z 1806/1906 00000KT 9999 FEW020 TX31/1819Z TN20/1810Z
BECMG 1809/1813 12005KT 9999 BKN030 PROB30
TEMPO 1818/1822 8000 TSSHRA BKN027 FEW040CB

Related Locations
Nearby:
Farthest:TSA: 12386 mi / 19934 km
Taipei [Taipei Songshan (Sung Shan)], TW

Find:

   beyond  
but within

Other Information
Maps:
NOTAMs:
Links:
Sources:

  
flag of Paraguay   

Airport Diagram

Airport diagram for ASU

Airport diagram (OBSOLETE) from NGA

Sectional Chart

Flight Planning
at skyvector.com

Satellite Image

Google Maps Satellite View

 

Copyright © 2004-2014 Karl L. Swartz. All rights reserved.
The Great Circle Mapper name and logo are trademarks of the Great Circle Mapper.
All other trademarks mentioned herein belong to their respective owners.
Please see credits for attibutions and further copyright information.

  Follow gcmap on Facebook Follow gcmap on Twitter

hCard Microformat

Geo Microformat